Zurück zum Katalog

STARLINK-5477

AktivKommunikationVLEO
NORAD 55659·PAYLOAD·🇺🇸 United States

Gestartet Feb 17, 2023 von Vandenberg Space Force Base

Loading…

Nächste Überflüge (nächste 24 Stunden)

TLE

AktuellSource: CelesTrak SupGP

Epoche: Sep 14, 2026, 22:06 UTC

1 55659C 23021AH  26257.92131944  .00713160  00000+0  58346-1 0  2574
2 55659  70.0007  47.4695 0003079 273.4577 180.6258 14.98899221    19

Verfolge STARLINK-5477 in Echtzeit mit AllMySat

Download on the App Store